CZ-2C R/B

Satellite information

Favourite Embed

Satellite Type and Status

ROCKET BODYIN ORBIT

Key statistics

Satellite CZ-2C R/B at a glance.

Uptime

5779

Days in orbit

Revolutions

≈ 14.5

Per day

Orbit

SSO

Sun Synchronous Orbit

Inclination

98.4

Latest

Satellite identification and parameters

Extended collection of information and parameters for CZ-2C R/B.

Object identification

Identified? True

Debris? False

Object name: CZ-2C R/B

International designator: 2009-061B

Object number (NORAD): 36089

Object ID (CCSDS): 36089

Country: PEOPLES REPUBLIC OF CHINA (PRC)

Current information (Y/N): Y

RCS size: LARGE

Orbital parameters

Period: 99.169 minutes

Inclination: 98.4189 deg

SMA: 7097.059 km

Apoapsis: 774.386 km

Periapsis: 663.462 km

RAAN: 222.1207 deg

Eccentricy: 0.00781476

Argument of periapsis: 184.1439 deg

Mean anomaly: 175.9118 deg

Mean motion: 14.52061965 rev/day

Mean motion (dot): 0.00000426 rev/day2

B* drag term: 0.00011303022 1/REarth

Two-line elements (TLE)

Creation date: Sept. 8, 2025, 3:16 a.m.

Reference frame: TEME

Reference center: EARTH

Epoch: Sept. 7, 2025, 9:34 p.m. UTC

TLE line 0: 0 CZ-2C R/B

TLE line 1: 1 36089U 09061B 25250.89882104 .00000426 00000-0 11303-3 0 9999

TLE line 2: 2 36089 98.4189 222.1207 0078148 184.1439 175.9118 14.52061965837112

Live tracking on map

Real-time ground track for satellite CZ-2C R/B.

In-orbit conjunctions

A list of the most updated potential collisions computed for object CZ-2C R/B.

Target Orbit TCA Probability of collision Miss distance Type
NOAA 16 DEB SSO 2024-08-18 08:28:20 0.0001621232 636.0 (m) DEBRIS

Associated space launch

Chinese experimental satellite of unknown purpose

CZ-2C R/B was lifted into orbit during the mission ‘Long March 2C | Shi Jian 11-01’, on board a Long March 2 space rocket.

The launch took place on Nov. 12, 2009, 2:45 a.m. from Launch Area 4 (SLS-2 / 603).

For more information about the launch, click the button.

Launch to space Long March 2C | Shi Jian 11-01
Long March 2C | Shi Jian 11-01

Agency: N/A

Status: Launch Successful

Launch date: Nov. 12, 2009, 2:45 a.m. UTC

Rocket: Long March 2

Launch pad: Launch Area 4 (SLS-2 / 603)

Location: Jiuquan Satellite Launch Center, People's Republic of China

...

Latest news about this satellite

There are no fresh news available about this satellite. Check back as we update our databases every day.


Newsletter sign-up

Weekly statistics, charts and insights to help you stay on top of the space industry.